EW1979 Weather Reports


time (UTC)temp
C
wind
direction
speed
KPH
gust
KPH
rain 1hr
cm
rain 24hr
cm
rain mn
cm
humidity
%
barometer
mb
20260506160117 22 177 0.0 0.0 0.00 0.00 0.00 100 1007.8
20260506153104 22 161 0.0 0.0 0.00 0.00 0.00 100 1007.5
20260506151506 22 160 0.0 0.0 0.00 0.00 0.00 100 1007.5
20260506150103 22 159 0.0 0.0 0.00 0.00 0.00 100 1007.3
20260506144609 22 157 0.0 0.0 0.00 0.00 0.00 100 1007.2
20260506141507 21 157 0.0 0.0 0.00 0.00 0.00 100 1007.3
20260506140002 21 156 0.0 0.0 0.00 0.00 0.00 100 1006.6
20260506134502 21 168 0.0 0.0 0.00 0.00 0.00 100 1006.2
20260506133003 21 168 0.0 0.0 0.00 0.00 0.00 100 1005.9
20260506131606 21 168 0.0 0.0 0.00 0.00 0.00 100 1005.7
20260506130104 21 168 0.0 0.0 0.00 0.00 0.00 100 1005.7
20260506124604 21 167 0.0 0.0 0.00 0.00 0.00 100 1005.0
20260506123007 21 167 0.0 0.0 0.00 0.00 0.00 100 1004.9
20260506121602 21 167 0.0 0.0 0.00 0.00 0.00 100 1004.9
20260506120008 21 167 0.0 0.0 0.00 0.00 0.00 100 1004.8
20260506113025 21 167 0.0 0.0 0.00 0.00 0.00 100 1004.8
20260506111510 21 168 0.0 0.0 0.00 0.00 0.00 100 1004.9
20260506110009 21 168 0.0 0.0 0.00 0.00 0.00 100 1005.1
20260506104501 21 168 0.0 0.0 0.00 0.00 0.00 100 1005.1
20260506103114 21 161 0.0 0.0 0.00 0.00 0.00 100 1005.0
20260506101553 21 157 0.0 0.0 0.00 0.00 0.00 100 1004.8
20260506100050 21 155 0.0 0.0 0.00 0.00 0.00 100 1004.7
20260506094544 21 164 0.0 0.0 0.00 0.00 0.00 100 1004.9
20260506093040 21 167 0.0 0.0 0.00 0.00 0.00 100 1004.8
20260506091536 21 181 0.0 0.0 0.00 0.00 0.00 100 1004.6
20260506090043 21 155 0.0 0.0 0.00 0.00 0.00 100 1004.5
20260506084527 21 165 0.0 0.0 0.00 0.00 0.00 100 1004.4
20260506083022 21 156 0.0 0.0 0.00 0.00 0.00 100 1004.3
20260506081518 21 152 0.0 0.0 0.00 0.00 0.00 1 1004.5
20260506073009 22 154 0.0 0.0 0.00 0.00 0.00 13 1004.6
20260506071506 22 167 0.0 0.0 0.00 0.00 0.00 18 1004.8
20260506061602 22 159 0.0 0.0 0.00 0.00 0.00 34 1005.2
20260506050109 23 153 0.0 0.0 0.00 0.00 0.00 41 1005.1
20260506044551 23 144 0.0 0.0 0.00 0.00 0.00 41 1005.5
20260506043043 23 146 0.0 0.0 0.00 0.00 0.00 44 1005.1
20260506041538 23 130 0.0 0.0 0.00 0.00 0.00 48 1005.1
20260506040032 23 152 0.0 0.0 0.00 0.00 0.00 57 1004.9
20260506034529 23 152 0.0 0.0 0.00 0.00 0.00 63 1004.7
20260506033025 23 152 0.0 0.0 0.00 0.00 0.00 68 1004.6
20260506031520 23 152 0.0 0.0 0.00 0.00 0.00 71 1004.4
20260506030021 23 153 0.0 0.0 0.00 0.00 0.00 74 1004.1
20260506024530 23 153 0.0 0.0 0.00 0.00 0.00 76 1004.0
20260506023006 23 165 0.0 0.0 0.00 0.00 0.00 77 1003.6
20260506021502 23 171 0.0 0.0 0.00 0.00 0.00 78 1003.4
20260506020057 24 171 0.0 0.0 0.00 0.00 0.00 78 1003.1
20260506014554 24 171 0.0 0.0 0.00 0.00 0.00 78 1002.9
20260506013102 25 180 0.0 0.0 0.00 0.00 0.00 78 1002.7
20260506011602 25 183 0.0 0.0 0.00 0.00 0.00 77 1002.4
20260506010045 25 192 0.0 0.0 0.00 0.00 0.00 76 1002.2
20260506004540 26 165 0.0 0.0 0.00 0.00 0.00 75 1002.5
20260506003037 26 165 0.0 0.0 0.00 0.00 0.00 74 1002.5
20260506001538 26 165 0.0 0.0 0.00 0.00 0.00 73 1002.5
20260506000032 26 173 0.0 0.0 0.00 0.00 0.00 71 1002.6
20260505234523 26 181 0.0 0.0 0.00 0.00 0.00 70 1002.4
20260505233019 27 161 0.0 0.0 0.00 0.00 0.00 69 1002.4
20260505231514 26 186 0.0 0.0 0.00 0.00 0.00 71 1002.5
20260505230010 26 165 0.0 0.0 0.00 0.00 0.00 71 1002.3
20260505224505 27 178 0.0 0.0 0.00 0.00 0.00 70 1002.3
20260505223001 27 197 0.0 0.0 0.00 0.00 0.00 70 1002.2
20260505221601 27 200 0.0 0.0 0.00 0.00 0.00 69 1002.2
20260505220053 27 177 0.0 0.0 0.00 0.00 0.00 71 1002.2
20260505214612 27 198 0.0 0.0 0.00 0.00 0.00 70 1002.2
20260505213046 27 195 0.0 0.0 0.00 0.00 0.00 70 1002.2
20260505211541 27 240 0.0 0.0 0.00 0.00 0.00 69 1002.6
20260505210038 27 194 0.0 0.0 0.00 0.00 0.00 71 1002.8
20260505204535 27 160 0.0 0.0 0.00 0.00 0.00 69 1003.1
20260505203028 27 206 0.0 0.0 0.00 0.00 0.00 70 1003.3
20260505201524 26 206 0.0 0.0 0.00 0.00 0.00 71 1003.5
20260505200020 26 178 0.0 0.0 0.00 0.00 0.00 73 1003.7
20260505194515 26 183 0.0 0.0 0.00 0.00 0.00 72 1004.0
20260505193012 25 175 0.0 0.0 0.00 0.00 0.00 72 1004.1
20260505191506 25 210 0.0 0.0 0.00 0.00 0.00 73 1004.2
20260505190002 25 198 0.0 0.0 0.00 0.00 0.00 71 1004.3
20260505184557 24 194 0.0 0.0 0.00 0.00 0.00 68 1004.8
20260505183104 23 198 0.0 0.0 0.00 0.00 0.00 15 1005.8
20260505181551 22 215 0.0 0.0 0.00 0.00 0.00 100 1006.0
20260505180050 21 202 0.0 0.0 0.00 0.00 0.00 100 1006.1
20260505174550 21 206 0.0 0.0 0.00 0.00 0.00 100 1006.4
20260505173036 20 208 0.0 0.0 0.00 0.00 0.00 100 1006.4
20260505171531 20 197 0.0 0.0 0.00 0.00 0.00 100 1006.3
20260505170028 20 196 0.0 0.0 0.00 0.00 0.00 100 1006.6
20260505164522 20 200 0.0 0.0 0.00 0.00 0.00 100 1006.2
20260505163020 20 205 0.0 0.0 0.00 0.00 0.00 100 1006.2
20260505161517 20 195 0.0 0.0 0.00 0.00 0.00 100 1006.3